Location: Congrier
(47.8099°N, 1.1170°W)
Time: 23:41:25
(UTC+00:00)

Meteor 2-17 Rocket - Pass Details

Date: 28 January 2023
Orbit: 935 x 956 km, 82.5° (Epoch: 21 March)

Event Time Altitude Azimuth Distance (km) Brightness Sun altitude
Rises 17:45:22 0° 352° (N) 3,643 7.4 -8.1°
Reaches altitude 10° 17:47:55 10° 356° (N) 2,695 6.7 -8.5°
Maximum altitude 17:54:02 63° 77° (ENE) 1,061 4.5 -9.5°
Drops below altitude 10° 18:00:07 10° 159° (SSE) 2,680 6.8 -10.5°
Sets 18:02:38 0° 162° (SSE) 3,621 7.5 -10.9°
